Hourly Data Report for October 16, 2013

All times are specified in Local Standard Time (LST). Add 1 hour to adjust for Daylight Saving Time where and when it is observed.

CHARLOTTETOWN A
PRINCE EDWARD ISLAND

46°17'21.000" N
63°07'09.000" W
48.50 m
8300301
71706
YYG

Download Data

Hourly Data (October 2013)
Hourly Data Report for October 16, 2013
Temp Definition
°C
Dew Point Temp Definition
°C
Rel Hum Definition
%
Wind Dir Definition
10's deg

Wind Spd Definition
km/h
Visibility Definition
km
Stn Press Definition
kPa
Hmdx Definition


Wind Chill Definition


Weather Definition


TIME
00:00 Legend Double Dagger 1.1 0.8 98 32 3 24.1 102.03     LegendNANA
01:00 Legend Double Dagger 1.3 0.4 94 19 2 24.1 102.04     LegendNANA
02:00 Legend Double Dagger -0.3 -0.9 96 18 5 24.1 102.05   -2 Mainly Clear
03:00 Legend Double Dagger 0.9 0.6 98 15 5 24.1 102.00     Fog
04:00 Legend Double Dagger 0.2 0.2 100 12 2 24.1 101.99     Fog
05:00 Legend Double Dagger 0.6 0.3 98 17 2 24.1 102.01     Fog
06:00 Legend Double Dagger 0.1 -0.5 96 12 5 24.1 101.99     LegendNANA
07:00 Legend Double Dagger 2.2 2.1 99 11 5 24.1 102.04     LegendNANA
08:00 Legend Double Dagger 5.1 4.5 96 11 8 24.1 102.03     Mostly Cloudy
09:00 Legend Double Dagger 9.4 6.7 83 14 11 24.1 102.05     LegendNANA
10:00 Legend Double Dagger 11.3 5.2 66 14 18 24.1 102.05     LegendNANA
11:00 Legend Double Dagger 12.1 4.6 60 14 14 24.1 101.94     Mostly Cloudy
12:00 Legend Double Dagger 12.9 4.7 57 14 10 24.1 101.88     LegendNANA
13:00 Legend Double Dagger 13.7 4.4 53 14 14 24.1 101.77     LegendNANA
14:00 Legend Double Dagger 14.0 5.7 57 16 16 24.1 101.69     Mostly Cloudy
15:00 Legend Double Dagger 14.6 7.0 60 16 14 24.1 101.62     LegendNANA
16:00 Legend Double Dagger 14.0 7.1 63 14 9 24.1 101.60     LegendNANA
17:00 Legend Double Dagger 13.2 8.1 71 12 15 24.1 101.52     Cloudy
18:00 Legend Double Dagger 12.1 7.8 75 12 17 24.1 101.48     Rain
19:00 Legend Double Dagger 11.5 9.8 89 16 10 24.1 101.48     LegendNANA
20:00 Legend Double Dagger 11.5 10.6 94 16 28 24.1 101.43     Cloudy
21:00 Legend Double Dagger 11.2 10.6 96 15 17 24.1 101.37     Rain
22:00 Legend Double Dagger 11.6 11.0 96 16 24 16.1 101.28     Rain
23:00 Legend Double Dagger 11.8 11.2 96 13 18 16.1 101.14     Moderate Rain

Notes on Data Quality.

Legend

  • E = Estimated
  • M = Missing
  • NA = Not Available
  • ‡ = Partner data that is not subject to review by the National Climate Archives
Date modified: